Torna al catalogo

STARLINK-33764

AttivoComunicazioniVLEO
NORAD 63510·PAYLOAD·🇺🇸 United States

Lanciato Apr 7, 2025 da Vandenberg Space Force Base

Loading…

Prossimi Passaggi (prossime 24 ore)

TLE

AggiornatoSource: CelesTrak SupGP

Epoca: Sep 14, 2026, 23:07 UTC

1 63510C 25071T   26257.96368056  .00007109  00000+0  21015-3 0  2570
2 63510  53.1575 339.3036 0001188  85.7710  98.7034 15.34371255    14

Traccia STARLINK-33764 in tempo reale con AllMySat

Download on the App Store